{"data":{"norad_id":48382,"epoch":"2026-09-19T05:35:07.078848Z","epoch_age_seconds":143148,"freshness":"FRESH","line1":"1 48382U 21038AF  26262.23272082 -.00001710  00000+0 -43329-4 0  9998","line2":"2 48382  53.1613 167.0776 0001215  92.7064 267.4076 15.31707439296882","mean_motion":15.31707439,"eccentricity":0.0001215,"inclination_deg":53.1613,"raan_deg":167.0776,"arg_perigee_deg":92.7064,"mean_anomaly_deg":267.4076,"bstar":-4.3329e-5,"rev_number":29688,"period_min":94.01273136991,"perigee_km":469.88568418285,"apogee_km":471.54995590413,"semimajor_km":6848.8548200435,"source":"CELESTRAK","updated_at":"2026-09-20T09:00:38.944357Z"}}